EW6113 Weather Reports


Display with metric or nautical units.
time (UTC)temp
F
wind
direction
speed
MPH
gust
MPH
rain 1hr
in
rain 24hr
in
rain mn
in
humidity
%
barometer
mb
20260510144611 51 271 0.0 4.0 0.00 0.00 0.00 97 1014.0
20260510143108 51 191 1.0 3.0 0.00 0.00 0.00 98 1013.9
20260510141600 51 111 0.0 2.0 0.00 0.00 0.00 98 1013.8
20260510140054 51 330 0.0 2.0 0.00 0.00 0.00 97 1013.7
20260510134607 50 330 1.0 3.0 0.00 0.00 0.00 97 1013.6
20260510133052 50 51 2.0 4.0 0.00 0.00 0.00 97 1013.5
20260510131551 50 346 0.0 4.0 0.00 0.00 0.00 97 1013.4
20260510130051 51 55 3.0 9.0 0.00 0.00 0.00 97 1013.3
20260510124556 51 57 3.0 10.0 0.00 0.00 0.00 97 1013.2
20260510123049 51 104 1.0 7.0 0.00 0.00 0.00 97 1013.2
20260510121548 51 105 4.0 9.0 0.00 0.00 0.00 96 1013.2
20260510120046 51 99 4.0 8.0 0.00 0.00 0.00 96 1013.3
20260510114546 52 70 3.0 6.0 0.00 0.00 0.00 96 1013.2
20260510113045 52 67 3.0 8.0 0.00 0.00 0.00 96 1013.3
20260510111554 51 51 0.0 0.0 0.00 0.00 0.00 96 1013.3
20260510110044 52 51 0.0 4.0 0.00 0.00 0.00 96 1013.4
20260510104559 52 74 3.0 6.0 0.00 0.00 0.00 96 1013.3
20260510103044 51 323 0.0 0.0 0.00 0.00 0.00 95 1013.4
20260510101540 50 339 0.0 0.0 0.00 0.00 0.00 95 1013.5
20260510100039 50 339 0.0 0.0 0.00 0.00 0.00 96 1013.6
20260510094541 50 12 0.0 0.0 0.00 0.00 0.00 95 1013.5
20260510093038 51 13 0.0 5.0 0.00 0.00 0.00 95 1013.6
20260510091535 50 360 2.0 4.0 0.00 0.00 0.00 96 1013.5
20260510090035 49 284 0.0 0.0 0.00 0.00 0.00 95 1013.6
20260510084534 49 284 0.0 0.0 0.00 0.00 0.00 94 1013.6
20260510083031 49 284 0.0 0.0 0.00 0.00 0.00 94 1013.7
20260510081531 50 284 0.0 0.0 0.00 0.00 0.00 94 1013.7
20260510080033 50 284 0.0 0.0 0.00 0.00 0.00 94 1013.7
20260510074533 50 284 0.0 0.0 0.00 0.00 0.00 94 1013.8
20260510073026 51 284 0.0 0.0 0.00 0.00 0.00 94 1013.7
20260510071523 52 26 0.0 0.0 0.00 0.00 0.00 94 1013.8
20260510070022 52 26 1.0 5.0 0.00 0.00 0.00 94 1013.8
20260510064520 52 360 1.0 4.0 0.00 0.00 0.00 94 1013.8
20260510063020 52 42 1.0 3.0 0.00 0.00 0.00 94 1013.8
20260510061528 52 45 2.0 5.0 0.00 0.00 0.00 94 1013.8
20260510060039 53 34 4.0 10.0 0.00 0.00 0.00 94 1013.9
20260510054518 53 50 5.0 9.0 0.00 0.00 0.00 94 1013.9
20260510053017 53 46 3.0 10.0 0.00 0.00 0.00 94 1013.8
20260510051516 53 23 6.0 11.0 0.00 0.00 0.00 94 1013.9
20260510050021 53 42 5.0 11.0 0.00 0.00 0.00 93 1013.9
20260510044517 53 19 6.0 11.0 0.00 0.00 0.00 94 1013.8
20260510043015 53 61 7.0 11.0 0.00 0.00 0.00 93 1013.6
20260510041516 53 42 4.0 11.0 0.00 0.00 0.00 93 1013.5
20260510040013 53 58 4.0 10.0 0.00 0.00 0.00 93 1013.6
20260510034512 54 32 3.0 6.0 0.00 0.00 0.00 93 1013.4
20260510033012 54 36 3.0 10.0 0.00 0.00 0.00 93 1013.3
20260510031511 54 74 4.0 10.0 0.00 0.00 0.00 92 1013.1
20260510030011 54 61 4.0 11.0 0.00 0.00 0.00 92 1013.0
20260510024512 55 80 4.0 10.0 0.00 0.00 0.00 91 1012.9
20260510023029 55 74 4.0 13.0 0.00 0.00 0.00 91 1012.9
20260510021510 55 105 7.0 13.0 0.00 0.00 0.00 91 1012.8
20260510020009 55 76 6.0 12.0 0.00 0.00 0.00 91 1012.9
20260510014508 55 69 8.0 15.0 0.00 0.00 0.00 91 1012.9
20260510013012 55 98 6.0 14.0 0.00 0.00 0.00 90 1013.0
20260510011512 56 109 8.0 15.0 0.00 0.00 0.00 89 1013.0
20260510010012 56 62 9.0 18.0 0.00 0.00 0.00 89 1013.0
20260510004506 56 107 8.0 18.0 0.00 0.00 0.00 89 1013.1
20260510003005 56 61 8.0 15.0 0.00 0.00 0.00 88 1013.1
20260510001504 57 59 7.0 14.0 0.00 0.00 0.00 87 1013.2
20260510000002 57 121 7.0 15.0 0.00 0.00 0.00 87 1013.3
20260509234501 57 99 10.0 20.0 0.00 0.00 0.00 84 1013.3
20260509233003 58 95 8.0 17.0 0.00 0.00 0.00 84 1013.4
20260509231606 58 80 9.0 19.0 0.00 0.00 0.00 84 1013.4
20260509230059 58 45 9.0 15.0 0.00 0.00 0.00 84 1013.4
20260509224614 58 105 11.0 19.0 0.00 0.00 0.00 83 1013.5
20260509223057 60 78 8.0 14.0 0.00 0.00 0.00 81 1013.5
20260509221556 59 77 12.0 18.0 0.00 0.00 0.00 82 1013.6
20260509220054 59 96 8.0 19.0 0.00 0.00 0.00 83 1013.8
20260509214554 59 95 9.0 17.0 0.00 0.00 0.00 81 1014.0
20260509213106 59 111 9.0 15.0 0.00 0.00 0.00 81 1014.0
20260509211612 59 95 8.0 16.0 0.00 0.00 0.00 82 1014.0
20260509210057 59 101 8.0 18.0 0.00 0.00 0.00 82 1014.2
20260509204600 59 120 8.0 15.0 0.00 0.00 0.00 81 1014.1
20260509203057 60 67 7.0 13.0 0.00 0.00 0.00 79 1014.2
20260509201546 58 107 8.0 14.0 0.00 0.00 0.00 81 1014.2
20260509200045 59 107 7.0 14.0 0.00 0.00 0.00 81 1014.4
20260509194545 58 101 9.0 16.0 0.00 0.00 0.00 83 1014.4
20260509193041 57 86 6.0 14.0 0.00 0.00 0.00 84 1014.6
20260509191537 56 144 8.0 13.0 0.00 0.00 0.00 87 1014.7
20260509190045 55 76 6.0 13.0 0.00 0.00 0.00 88 1014.9
20260509184536 54 139 10.0 14.0 0.00 0.00 0.00 88 1015.1
20260509183038 55 108 7.0 14.0 0.00 0.00 0.00 89 1014.9
20260509181534 55 103 5.0 14.0 0.00 0.00 0.00 89 1014.8
20260509180035 55 79 7.0 12.0 0.00 0.00 0.00 88 1014.8
20260509174535 55 101 6.0 13.0 0.00 0.00 0.00 87 1014.9
20260509173033 56 142 7.0 12.0 0.00 0.00 0.00 87 1014.8
20260509171532 55 105 6.0 11.0 0.00 0.00 0.00 88 1014.7
20260509170032 55 121 6.0 10.0 0.00 0.00 0.00 89 1014.7
20260509164532 55 106 5.0 9.0 0.00 0.00 0.00 90 1014.7
20260509163046 55 153 4.0 8.0 0.00 0.00 0.00 90 1014.7
20260509161529 55 126 5.0 11.0 0.00 0.00 0.00 90 1014.8
20260509160029 55 94 4.0 10.0 0.00 0.00 0.00 90 1014.8
20260509154527 56 98 1.0 7.0 0.00 0.00 0.00 92 1014.8
20260509153025 55 185 1.0 3.0 0.00 0.00 0.00 95 1014.8
20260509151521 53 129 0.0 3.0 0.00 0.00 0.00 96 1014.8
20260509150020 52 279 0.0 0.0 0.00 0.00 0.00 97 1014.8